Grayling, MI

1:26 AM EDT on June 26, 2017 (GMT -0400)
Grayling

Weather History for KGOV - November, 2013

Change the Weather History Date:

Sunday, November 3, 2013

  Actual Average (KHTL) Record (KHTL)
Temperature  
Mean Temperature 31 °F -  
Max Temperature 41 °F 47 °F 74 °F (1938)
Min Temperature 21 °F 33 °F 4 °F (1951)
Degree Days  
Heating Degree Days 34    
Moisture  
Dew Point 28 °F    
Average Humidity 84    
Maximum Humidity 100    
Minimum Humidity 60    
Precipitation  
Precipitation 0.00 in - - ()
Sea Level Pressure  
Sea Level Pressure 30.30 in    
Wind  
Wind Speed 2 mph (SE)    
Max Wind Speed 10 mph    
Max Gust Speed -    
Visibility 10 miles    
Events      
Averages and records for this station are not official NWS values.
T = Trace of Precipitation, MM = Missing Value Source: NWS Daily Summary

Daily Weather History Graph

Daily Weather History Graph

Search for Another Location

Airport or City:

Trip Planner

Search our weather history database for the weather conditions in past years. The results will help you decide how hot, cold, wet, or windy it might be!

Date:

Astronomy

Nov. 03, 2013 Rise Set
Actual Time 7:19 AM EST 5:24 PM EST
Civil Twilight 6:49 AM EST 5:55 PM EST
Nautical Twilight 6:14 AM EST 6:29 PM EST
Astronomical Twilight 5:40 AM EST 7:03 PM EST
Moon 7:23 AM EST (11/3) 5:37 PM EST (11/3)
Length of Visible Light 11h 06m
Length of Day
10h 04m
New Moon, 0% of the Moon is Illuminated
Nov 3
New Moon
Nov 10
First Quarter
Nov 17
Full
Nov 25
Last Quarter
Dec 2
New

Hourly Weather History & Observations

Time (EST) Temp. Windchill Dew Point Humidity Pressure Visibility Wind Dir Wind Speed Gust Speed Precip Events Conditions
12:15 AM 29.5 °F - 29.5 °F 100% 30.13 in 5.0 mi Calm Calm - N/A   Clear
12:34 AM 28.9 °F - 28.9 °F 100% 30.13 in 7.0 mi Calm Calm - N/A   Scattered Clouds
12:55 AM 28.4 °F - 28.4 °F 100% 30.14 in 3.0 mi Calm Calm - N/A   Scattered Clouds
1:15 AM 28.6 °F - 28.6 °F 100% 30.14 in 10.0 mi Calm Calm - N/A   Mostly Cloudy
1:34 AM 28.4 °F - 28.4 °F 100% 30.15 in 10.0 mi Calm Calm - N/A   Overcast
1:55 AM 29.1 °F - 29.1 °F 100% 30.16 in 10.0 mi Calm Calm - N/A   Overcast
1:15 AM 29.1 °F - 29.1 °F 100% 30.16 in 10.0 mi Calm Calm - N/A   Mostly Cloudy
1:35 AM 28.4 °F - 28.4 °F 100% 30.17 in 10.0 mi Calm Calm - N/A   Mostly Cloudy
1:55 AM 28.4 °F - 28.4 °F 100% 30.17 in 10.0 mi Calm Calm - N/A   Overcast
2:15 AM 28.4 °F 24.6 °F 28.4 °F 100% 30.17 in 10.0 mi North 3.5 mph - N/A   Overcast
2:34 AM 28.0 °F - 28.0 °F 100% 30.18 in 10.0 mi Calm Calm - N/A   Scattered Clouds
2:55 AM 28.4 °F - 28.4 °F 100% 30.19 in 10.0 mi Calm Calm - N/A   Clear
3:15 AM 26.1 °F - 26.1 °F 100% 30.20 in 10.0 mi Calm Calm - N/A   Clear
3:34 AM 26.1 °F - 26.1 °F 100% 30.21 in 10.0 mi Calm Calm - N/A   Clear
3:55 AM 26.1 °F - 26.1 °F 100% 30.21 in 1.0 mi Calm Calm - N/A   Mist
4:14 AM 25.3 °F - 25.3 °F 100% 30.22 in 10.0 mi Calm Calm - N/A   Clear
4:35 AM 25.5 °F - 25.5 °F 100% 30.23 in 10.0 mi Calm Calm - N/A   Clear
4:55 AM 23.9 °F - 23.7 °F 99% 30.23 in 10.0 mi Calm Calm - N/A   Clear
5:14 AM 23.5 °F - 23.4 °F 99% 30.24 in 10.0 mi Calm Calm - N/A   Clear
5:35 AM 23.5 °F - 23.5 °F 100% 30.26 in 10.0 mi Calm Calm - N/A   Clear
5:54 AM 24.3 °F - 24.3 °F 100% 30.26 in 10.0 mi Calm Calm - N/A   Clear
6:15 AM 22.5 °F - 22.1 °F 99% 30.26 in 10.0 mi Calm Calm - N/A   Clear
6:35 AM 21.2 °F - 20.8 °F 99% 30.27 in 10.0 mi Calm Calm - N/A   Clear
6:54 AM 21.2 °F - 20.3 °F 96% 30.28 in 10.0 mi Calm Calm - N/A   Clear
7:15 AM 22.1 °F - 21.9 °F 99% 30.28 in 10.0 mi Calm Calm - N/A   Clear
7:34 AM 21.2 °F - 20.8 °F 99% 30.29 in 10.0 mi Calm Calm - N/A   Clear
7:55 AM 21.0 °F - 20.1 °F 96% 30.31 in 10.0 mi Calm Calm - N/A   Clear
8:15 AM 24.4 °F - 23.9 °F 98% 30.31 in 10.0 mi Calm Calm - N/A   Clear
8:34 AM 28.4 °F - 28.2 °F 99% 30.32 in 10.0 mi Calm Calm - N/A   Clear
8:55 AM 28.4 °F - 28.2 °F 99% 30.32 in 10.0 mi Calm Calm - N/A   Clear
9:14 AM 31.1 °F - 29.5 °F 94% 30.33 in 10.0 mi Calm Calm - N/A   Clear
9:35 AM 33.3 °F 28.9 °F 30.2 °F 89% 30.33 in 10.0 mi ESE 4.6 mph - N/A   Clear
9:55 AM 35.1 °F 31.0 °F 31.1 °F 85% 30.33 in 10.0 mi East 4.6 mph - N/A   Clear
10:15 AM 35.8 °F 31.9 °F 30.7 °F 82% 30.33 in 10.0 mi East 4.6 mph - N/A   Clear
10:35 AM 37.2 °F 33.6 °F 31.1 °F 79% 30.34 in 10.0 mi ESE 4.6 mph - N/A   Clear
10:54 AM 38.3 °F 33.2 °F 30.4 °F 73% 30.34 in 10.0 mi SE 6.9 mph - N/A   Scattered Clouds
11:15 AM 38.3 °F 33.2 °F 29.3 °F 70% 30.35 in 10.0 mi ESE 6.9 mph - N/A   Mostly Cloudy
11:34 AM 39.9 °F 36.7 °F 28.9 °F 65% 30.35 in 10.0 mi SSE 4.6 mph - N/A   Scattered Clouds
11:55 AM 39.4 °F 37.2 °F 29.7 °F 68% 30.35 in 10.0 mi SE 3.5 mph - N/A   Mostly Cloudy
12:15 PM 39.4 °F 35.2 °F 28.8 °F 66% 30.34 in 10.0 mi SSE 5.8 mph - N/A   Mostly Cloudy
12:34 PM 41.2 °F 36.0 °F 28.4 °F 60% 30.34 in 10.0 mi SSE 8.1 mph - N/A   Mostly Cloudy
12:55 PM 40.1 °F 36.1 °F 28.8 °F 64% 30.34 in 10.0 mi SE 5.8 mph - N/A   Overcast
1:14 PM 40.6 °F 36.0 °F 29.5 °F 64% 30.33 in 10.0 mi SE 6.9 mph - N/A   Overcast
1:35 PM 41.0 °F 35.8 °F 29.3 °F 63% 30.34 in 10.0 mi SSE 8.1 mph - N/A   Overcast
1:55 PM 41.0 °F 36.4 °F 28.9 °F 62% 30.33 in 10.0 mi SSE 6.9 mph - N/A   Overcast
2:14 PM 41.0 °F 35.2 °F 29.5 °F 64% 30.33 in 10.0 mi SSE 9.2 mph - N/A   Overcast
2:35 PM 41.0 °F 35.8 °F 29.1 °F 63% 30.33 in 10.0 mi SE 8.1 mph - N/A   Overcast
2:54 PM 41.0 °F 35.2 °F 28.8 °F 62% 30.33 in 10.0 mi South 9.2 mph - N/A   Overcast
3:15 PM 41.0 °F 35.8 °F 28.8 °F 62% 30.34 in 10.0 mi ESE 8.1 mph - N/A   Overcast
3:35 PM 41.4 °F 36.2 °F 29.3 °F 62% 30.34 in 10.0 mi SE 8.1 mph - N/A   Overcast
3:54 PM 41.0 °F 34.7 °F 29.7 °F 64% 30.34 in 10.0 mi SSE 10.4 mph - N/A   Overcast
4:15 PM 40.6 °F 36.0 °F 30.9 °F 68% 30.34 in 10.0 mi SSE 6.9 mph - N/A   Overcast
4:34 PM 41.0 °F 35.2 °F 31.1 °F 68% 30.35 in 10.0 mi SE 9.2 mph - N/A   Overcast
4:55 PM 40.6 °F 35.4 °F 30.9 °F 68% 30.34 in 10.0 mi SE 8.1 mph - N/A   Overcast
5:15 PM 39.6 °F 34.0 °F 30.2 °F 69% 30.35 in 10.0 mi SSE 8.1 mph - N/A   Overcast
5:34 PM 38.3 °F 33.2 °F 30.2 °F 73% 30.36 in 10.0 mi SSE 6.9 mph - N/A   Mostly Cloudy
5:55 PM 38.5 °F 34.1 °F 29.8 °F 71% 30.36 in 10.0 mi SE 5.8 mph - N/A   Overcast
6:14 PM 38.3 °F 33.9 °F 29.8 °F 72% 30.37 in 10.0 mi SE 5.8 mph - N/A   Overcast
6:35 PM 38.3 °F 34.8 °F 29.5 °F 71% 30.37 in 10.0 mi SSE 4.6 mph - N/A   Overcast
6:55 PM 38.3 °F 33.9 °F 28.9 °F 69% 30.38 in 10.0 mi SSE 5.8 mph - N/A   Overcast
7:14 PM 38.3 °F 32.5 °F 29.1 °F 70% 30.38 in 10.0 mi SE 8.1 mph - N/A   Overcast
7:35 PM 38.3 °F 33.9 °F 28.6 °F 68% 30.38 in 10.0 mi SSE 5.8 mph - N/A   Overcast
7:54 PM 38.3 °F 33.2 °F 28.9 °F 69% 30.38 in 10.0 mi SE 6.9 mph - N/A   Overcast
8:15 PM 38.3 °F 32.5 °F 29.3 °F 70% 30.38 in 10.0 mi SE 8.1 mph - N/A   Overcast
8:35 PM 38.3 °F 33.2 °F 30.0 °F 72% 30.38 in 10.0 mi ESE 6.9 mph - N/A   Overcast
8:54 PM 38.3 °F 33.2 °F 30.6 °F 74% 30.38 in 10.0 mi ESE 6.9 mph - N/A   Overcast
9:15 PM 36.0 °F 29.6 °F 29.3 °F 77% 30.38 in 10.0 mi ESE 8.1 mph - N/A   Mostly Cloudy
9:34 PM 34.3 °F 28.4 °F 29.7 °F 83% 30.38 in 10.0 mi ESE 6.9 mph - N/A   Scattered Clouds
9:55 PM 33.3 °F 26.4 °F 29.3 °F 85% 30.38 in 10.0 mi ESE 8.1 mph - N/A   Clear
10:14 PM 33.3 °F 28.9 °F 30.2 °F 89% 30.39 in 10.0 mi ESE 4.6 mph - N/A   Clear
10:35 PM 33.3 °F 28.9 °F 30.9 °F 91% 30.40 in 10.0 mi ESE 4.6 mph - N/A   Clear
10:54 PM 32.0 °F 26.4 °F 30.2 °F 93% 30.39 in 10.0 mi ESE 5.8 mph - N/A   Clear